| time (UTC) | temp C | wind direction | speed KPH | gust KPH | rain 1hr cm | rain 24hr cm | rain mn cm | humidity % | barometer mb |
| 20260504191540 | 25 | 286 | 12.9 | 0.0 | 0.00 | 0.00 | 0.00 | 54 | 1000.5 |
| 20260504190128 | 24 | 311 | 12.9 | 0.0 | 0.00 | 0.00 | 0.00 | 55 | 1000.8 |
| 20260504184556 | 23 | 224 | 9.7 | 0.0 | 0.00 | 0.00 | 0.00 | 56 | 1000.9 |
| 20260504183015 | 23 | 271 | 11.3 | 0.0 | 0.00 | 0.00 | 0.00 | 56 | 1001.1 |
| 20260504181535 | 23 | 263 | 12.9 | 0.0 | 0.00 | 0.00 | 0.00 | 56 | 1001.3 |
| 20260504180005 | 23 | 278 | 9.7 | 0.0 | 0.00 | 0.00 | 0.00 | 60 | 1001.5 |
| 20260504174521 | 22 | 198 | 11.3 | 0.0 | 0.00 | 0.00 | 0.00 | 60 | 1001.6 |
| 20260504173052 | 22 | 275 | 9.7 | 0.0 | 0.00 | 0.00 | 0.00 | 60 | 1001.8 |
| 20260504171507 | 22 | 195 | 11.3 | 0.0 | 0.00 | 0.00 | 0.00 | 59 | 1002.0 |
| 20260504081601 | 10 | 208 | 4.8 | 0.0 | 0.00 | 0.00 | 0.00 | 78 | 1005.0 |
| 20260504044500 | 10 | 202 | 3.2 | 0.0 | 0.00 | 0.00 | 0.00 | 79 | 1007.7 |
| 20260504043031 | 10 | 198 | 3.2 | 0.0 | 0.00 | 0.00 | 0.00 | 79 | 1007.7 |
| 20260504041549 | 10 | 205 | 3.2 | 0.0 | 0.00 | 0.00 | 0.00 | 80 | 1007.6 |
| 20260504040002 | 9 | 211 | 3.2 | 0.0 | 0.00 | 0.00 | 0.00 | 81 | 1007.7 |
| 20260504034531 | 9 | 230 | 1.6 | 0.0 | 0.00 | 0.00 | 0.00 | 81 | 1008.0 |
| 20260504033042 | 9 | 237 | 1.6 | 0.0 | 0.00 | 0.00 | 0.00 | 81 | 1008.0 |
| 20260504031501 | 9 | 214 | 1.6 | 0.0 | 0.00 | 0.00 | 0.00 | 82 | 1008.2 |
| 20260504030021 | 9 | 212 | 3.2 | 0.0 | 0.00 | 0.00 | 0.00 | 83 | 1008.1 |
| 20260504024549 | 9 | 215 | 1.6 | 0.0 | 0.00 | 0.00 | 0.00 | 83 | 1008.4 |
| 20260504023005 | 9 | 203 | 1.6 | 0.0 | 0.00 | 0.00 | 0.00 | 83 | 1008.3 |
| 20260504021520 | 9 | 217 | 1.6 | 0.0 | 0.00 | 0.00 | 0.00 | 83 | 1008.4 |
| 20260504020040 | 9 | 202 | 1.6 | 0.0 | 0.00 | 0.00 | 0.00 | 83 | 1008.4 |
| 20260504014558 | 9 | 200 | 1.6 | 0.0 | 0.00 | 0.00 | 0.00 | 83 | 1008.3 |
| 20260504013012 | 9 | 200 | 1.6 | 0.0 | 0.00 | 0.00 | 0.00 | 83 | 1008.4 |
| 20260504011531 | 9 | 250 | 1.6 | 0.0 | 0.00 | 0.00 | 0.00 | 83 | 1008.4 |
| 20260504010110 | 10 | 302 | 0.0 | 0.0 | 0.00 | 0.00 | 0.00 | 82 | 1008.4 |
| 20260504004509 | 10 | 236 | 1.6 | 0.0 | 0.00 | 0.00 | 0.00 | 80 | 1008.6 |
| 20260504003027 | 10 | 313 | 0.0 | 0.0 | 0.00 | 0.00 | 0.00 | 79 | 1008.5 |
| 20260504001602 | 11 | 305 | 3.2 | 0.0 | 0.00 | 0.00 | 0.00 | 79 | 1008.5 |
| 20260504000038 | 11 | 221 | 3.2 | 0.0 | 0.00 | 0.00 | 0.00 | 79 | 1008.8 |
| 20260503234546 | 11 | 203 | 3.2 | 0.0 | 0.00 | 0.00 | 0.00 | 78 | 1008.9 |
| 20260503233016 | 11 | 316 | 3.2 | 0.0 | 0.00 | 0.00 | 0.00 | 76 | 1009.1 |
| 20260503231541 | 12 | 338 | 3.2 | 0.0 | 0.00 | 0.00 | 0.00 | 75 | 1009.3 |
| 20260503230054 | 12 | 275 | 3.2 | 0.0 | 0.00 | 0.00 | 0.00 | 75 | 1009.4 |
| 20260503224502 | 12 | 226 | 4.8 | 0.0 | 0.00 | 0.00 | 0.00 | 75 | 1009.8 |
| 20260503223020 | 11 | 185 | 4.8 | 0.0 | 0.00 | 0.00 | 0.00 | 77 | 1010.1 |
| 20260503221544 | 10 | 237 | 4.8 | 0.0 | 0.00 | 0.00 | 0.00 | 80 | 1010.1 |
| 20260503214508 | 9 | 196 | 3.2 | 0.0 | 0.00 | 0.00 | 0.00 | 81 | 1010.3 |
| 20260503213033 | 9 | 205 | 1.6 | 0.0 | 0.00 | 0.00 | 0.00 | 82 | 1010.4 |
| 20260503211510 | 8 | 53 | 4.8 | 0.0 | 0.00 | 0.00 | 0.00 | 82 | 1010.4 |
| 20260503210042 | 8 | 257 | 3.2 | 0.0 | 0.00 | 0.00 | 0.00 | 82 | 1010.7 |
| 20260503204557 | 8 | 192 | 4.8 | 0.0 | 0.00 | 0.00 | 0.00 | 81 | 1011.0 |
| 20260503203014 | 9 | 188 | 9.7 | 0.0 | 0.00 | 0.00 | 0.00 | 81 | 1011.6 |
| 20260503201539 | 9 | 219 | 8.0 | 0.0 | 0.00 | 0.00 | 0.00 | 81 | 1012.3 |
| 20260503200059 | 9 | 170 | 14.5 | 0.0 | 0.00 | 0.00 | 0.00 | 78 | 1012.8 |
| 20260503194527 | 10 | 273 | 16.1 | 0.0 | 0.00 | 0.00 | 0.00 | 77 | 1013.1 |
| 20260503193051 | 11 | 244 | 17.7 | 0.0 | 0.00 | 0.00 | 0.00 | 70 | 1013.2 |